Location: ??????
(42.0089°N, 44.3281°E)
Time: 18:06:25
(UTC+00:00)

USA 267 - Pass Details

Date: 07 June 2022
Orbit: 1101 x 1106 km, 123.0° (Epoch: 28 June)

Event Time Altitude Azimuth Distance (km) Brightness Sun altitude
Rises 17:17:34 0° 47° (NE) 3,924 6.1 -7.1°
Reaches altitude 10° 17:20:14 10° 40° (NE) 2,965 5.5 -7.5°
Maximum altitude 17:26:07 38° 336° (NNW) 1,634 4.9 -8.3°
Drops below altitude 10° 17:32:01 10° 271° (W) 2,961 6.3 -9.1°
Sets 17:34:40 0° 264° (W) 3,918 6.8 -9.5°
